Regional Weather Roundup
Issued by NWS Northern Indiana

Home | Current Version | Previous Version | Graphics & Text | Print | Product List | Glossary On
Versions: 1 2 3 4 5 6 7 8 9 10 11 12 13 14 15 16 17 18 19 20 21 22 23 24 25 26 27 28 29 30 31 32 33 34 35 36 37 38 39 40 41 42 43 44 45 46 47 48 49 50
000
ASUS43 KIWX 300400
RWRIWX

KIWX WEATHER ROUNDUP
NATIONAL WEATHER SERVICE NORTHERN INDIANA
1200 AM EDT SUN AUG 30 2015

NOTE: "FAIR" INDICATES FEW OR NO CLOUDS BELOW 12,000 FEET WITH NO
SIGNIFICANT WEATHER AND/OR OBSTRUCTIONS TO VISIBILITY.

* THESE STATIONS ARE NOT UNDER NWS QUALITY CONTROL. THEY ALSO MAY NOT
  REPORT WEATHER SUCH AS PRECIPITATION OR FOG.

INZ001>027-300500-
NORTHERN INDIANA

CITY           SKY/WX    TMP DP  RH WIND       PRES   REMARKS
KNOX*          CLOUDY    66  66 100 S5        30.02S
SOUTH BEND     MOCLDY    69  67  93 S3        30.04S FOG
GOSHEN         CLOUDY    69  66  90 S7        30.04F
MONTICELLO*    RAIN      69  69 100 CALM      30.04S
ANGOLA*        CLOUDY    66  57  72 SE3       30.07S
FORT WAYNE     CLOUDY    71  68  90 CALM      30.07S
PERU/GRISSOM   CLOUDY    69  64  82 CALM      30.05S

$$
INZ028>050-300500-
CENTRAL INDIANA

CITY           SKY/WX    TMP DP  RH WIND       PRES   REMARKS
LAFAYETTE      CLOUDY    72  68  87 CALM      30.04S
KOKOMO*        CLOUDY    66  61  82 CALM      30.06S
MUNCIE*        CLOUDY    73  67  81 CALM      30.07S
INDIANAPOLIS   CLOUDY    75  67  76 S6        30.05S

$$
MIZ043>046-050>051-056>058-064>065-071>073-077>080-300500-
SOUTHWEST LOWER MICHIGAN

CITY           SKY/WX    TMP DP  RH WIND       PRES   REMARKS
BATTLE CREEK   CLOUDY    68  66  93 SE5       30.05F
BENTON HARBOR  CLOUDY    68  66  93 SE3       30.02S FOG
COLDWATER*     DRIZZLE   66  66  98 SE3       30.06F
HILLSDALE*     CLOUDY    66  66 100 SE3       30.08F
HOLLAND        CLOUDY    67  65  93 E3        30.04F FOG
GRAND RAPIDS   CLOUDY    66  65  96 E5        30.05S FOG
KALAMAZOO      CLOUDY    68  64  87 S5        30.05S
STURGIS*       CLOUDY    66  64  94 SE7       30.04F
THREE RIVERS*  DRIZZLE   67  66  97 CALM      30.05S

$$
OHZ001>008-015>018-024>025-300500-
NORTHWEST OHIO

CITY           SKY/WX    TMP DP  RH WIND       PRES   REMARKS
DEFIANCE       LGT RAIN  69  66  90 NW5       30.09R FOG
FINDLAY        CLOUDY    72  68  87 W5        30.06S
TOLEDO EXPRESS LGT RAIN  69  68  96 W3        30.07S FOG
TOLEDO METCALF CLOUDY    70  67  90 N3        30.07S FOG
LIMA           CLOUDY    68  66  93 CALM      30.07F

$$
AND FOR LAKE MICHIGAN COASTAL AND OPEN LAKE BUOY OBSERVATIONS

STATION/POSITION TEMP    WIND        PRES    VSBY  WAVE
                 AIR SEA DIR/SP/G                  HT/PER
                 (F)     (DEG/KT/KT) (MB)    (MI)  (FT/S)
MICHIGAN CITY     71     150/  6/  6   N/A
BURNS HARBOR      70     290/  5/  6 1017.3R
SAINT JOSEPH      68      CALM  /  2 1017.3F
SOUTH LAKE BUOY   68 68   10/  2/  2 1016.4F         1/ 3
4 MI NW BRIDGMAN  70 70  190/  8/  8   N/A           1
MICHIGAN CITY     71 70  230/  4/  6   N/A           0

$$
&&



USA.gov is the U.S. government's official web portal to all federal, state and local government web resources and services.